Simultaneous Nadir Overpasses (SNOs) Predictions

Prediction of SNOs between AQUA and METOP-C Satellite Orbit:

Table of predicted SNOs for the next 14.0 days since TLE Epoch: 12/28/2018
Index Date (AQUA) Time (AQUA) Lat,Lon (AQUA) SZA (AQUA ) Date (METOP-C) Time (METOP-C) Lat,Lon (METOP-C) SZA (METOP-C ) Distance(km) Time Diff (sec)
1 12/28/2018 15:43:11 -73.87, 118.33 82.88 12/28/2018 15:43:11 -73.84, 118.39 82.91 3.38 0
2 12/28/2018 16:32:40 73.92, -74.15 97.18 12/28/2018 16:33:49 73.93, -74.07 97.18 2.70 69
3 12/31/2018 10:27:59 73.78, 17.32 96.86 12/31/2018 10:26:53 73.76, 17.28 96.85 2.38 66
4 12/31/2018 11:17:26 -73.88,-175.25 83.04 12/31/2018 11:17:33 -73.86,-175.15 83.06 3.72 7
5 12/31/2018 12:06:57 74.03, -7.97 97.13 12/31/2018 12:08:09 74.04, -7.39 97.11 17.89 72
6 01/03/2019 06:02:15 73.79, 83.72 96.65 01/03/2019 06:01:16 73.77, 83.72 96.64 2.57 59
7 01/03/2019 06:51:41 -73.84,-108.73 83.31 01/03/2019 06:51:57 -73.83,-108.81 83.32 2.52 16
8 01/03/2019 07:41:18 74.31, 57.83 97.19 01/03/2019 07:42:26 74.34, 59.80 97.16 59.27 68
9 01/06/2019 01:36:30 73.76, 150.23 96.33 01/06/2019 01:35:39 73.78, 150.16 96.36 3.05 51
10 01/06/2019 02:25:57 -73.86, -42.34 83.58 01/06/2019 02:26:20 -73.85, -42.35 83.59 1.09 23
11 01/08/2019 21:10:45 73.79,-143.39 96.01 01/08/2019 21:10:01 73.79,-143.40 96.02 0.62 44
12 01/08/2019 22:00:12 -73.88, 24.05 83.90 01/08/2019 22:00:42 -73.87, 24.10 83.92 2.29 30




NCC Satellite Simultaneous Nadir Overpasses (SNOs) Prediction Service
